Deva — A8OK3 — position and weather

sailwx.info

Track history (hours):
 
Tides and Currents Weather Stations Pressure Air Temp Water Temp Dewpoint Dewpoint Depression Visibility Wind Speed Wind Dir Waves Ship Positions

Deva

Last reported at 2014-Oct-24 14:33 UTC. Time now 2014-Oct-25 07:11 UTC.
Position N 38°06' W 009°41'.

Length 259 m; draft 9.9 m.

Type: Ship (hazmat cat A). MMSI: 636013644.

Date/timePositionNaut miles runAvg speedWind from/ knotsBaromVisibWave heightAir tempDewpointWater temp
2014-Oct-24 14:33N 38°06' W 009°41'1717.0
2014-Oct-24 13:33N 37°49' W 009°37'1717.3
2014-Oct-24 12:33N 37°32' W 009°31'1717.3
2014-Oct-24 11:34N 37°15' W 009°26'1717.1
2014-Oct-24 10:33N 36°59' W 009°21'1716.7
2014-Oct-24 09:33N 36°45' W 009°10'1717.1
2014-Oct-24 08:34N 36°39' W 008°50'1817.6
2014-Oct-24 07:33N 36°34' W 008°29'1717.2
2014-Oct-24 06:34N 36°29' W 008°09'1717.2
2014-Oct-24 05:34N 36°23' W 007°48'1717.2
2014-Oct-24 04:33N 36°18' W 007°28'1817.4
2014-Oct-24 03:32N 36°13' W 007°07'2517.3
2014-Oct-24 02:06N 36°04' W 006°38'917.1
2014-Oct-24 01:33N 36°01' W 006°27'3917.3
2014-Oct-23 23:19N 35°57' W 005°39'1317.5
2014-Oct-23 22:34N 36°01' W 005°24'68517.1
2014-Oct-22 06:32N 38°36' E 008°35'2217.1
2014-Oct-22 05:15N 38°44' E 009°01'1217.0
2014-Oct-22 04:33N 38°49' E 009°14'14217.1
2014-Oct-21 20:16N 39°44' E 012°03'  
2014-Oct-17 23:27N 32°44' E 031°32'  
Track history (hours):
 
Tides and Currents Weather Stations Pressure Air Temp Water Temp Dewpoint Dewpoint Depression Visibility Wind Speed Wind Dir Waves Ship Positions

Deva

Last reported at 2014-Oct-24 14:33 UTC. Time now 2014-Oct-25 07:11 UTC.
Position N 38°06' W 009°41'.

Length 259 m; draft 9.9 m.

Type: Ship (hazmat cat A). MMSI: 636013644.

Date/timePositionNaut miles runAvg speedWind from/ knotsBaromVisibWave heightAir tempDewpointWater temp
2014-Oct-24 14:33N 38°06' W 009°41'1717.0
2014-Oct-24 13:33N 37°49' W 009°37'1717.3
2014-Oct-24 12:33N 37°32' W 009°31'1717.3
2014-Oct-24 11:34N 37°15' W 009°26'1717.1
2014-Oct-24 10:33N 36°59' W 009°21'1716.7
2014-Oct-24 09:33N 36°45' W 009°10'1717.1
2014-Oct-24 08:34N 36°39' W 008°50'1817.6
2014-Oct-24 07:33N 36°34' W 008°29'1717.2
2014-Oct-24 06:34N 36°29' W 008°09'1717.2
2014-Oct-24 05:34N 36°23' W 007°48'1717.2
2014-Oct-24 04:33N 36°18' W 007°28'1817.4
2014-Oct-24 03:32N 36°13' W 007°07'2517.3
2014-Oct-24 02:06N 36°04' W 006°38'917.1
2014-Oct-24 01:33N 36°01' W 006°27'3917.3
2014-Oct-23 23:19N 35°57' W 005°39'1317.5
2014-Oct-23 22:34N 36°01' W 005°24'68517.1
2014-Oct-22 06:32N 38°36' E 008°35'2217.1
2014-Oct-22 05:15N 38°44' E 009°01'1217.0
2014-Oct-22 04:33N 38°49' E 009°14'14217.1
2014-Oct-21 20:16N 39°44' E 012°03'  
2014-Oct-17 23:27N 32°44' E 031°32'  

Dump ship's entire track history